Location: Karaa?a�
(36.7158°N, 30.4165°E)
Time: 07:58:42
(UTC+00:00)

Cosmos 1328 - Visible Passes

Search period start: 11 August 2020 00:00
Search period end: 21 August 2020 00:00
Orbit: 538 x 545 km, 82.5° (Epoch: 10 August)

Date Brightness Start Highest point End Pass type
(mag) Time Alt. Az. Time Alt. Az. Time Alt. Az.
11 Aug 6.9 00:21:47 10° NE 00:22:52 11° ENE 00:23:57 10° E visible
11 Aug 4.1 01:55:33 10° NNW 01:59:21 44° W 02:02:28 14° SSW visible
12 Aug 6.9 00:14:47 10° NE 00:16:03 11° ENE 00:17:18 10° E visible
12 Aug 4.1 01:48:44 10° NNW 01:52:32 43° W 01:54:32 24° SSW visible
13 Aug 6.8 00:07:50 10° NE 00:09:15 12° ENE 00:10:38 10° E visible
13 Aug 4.2 01:41:55 10° NNW 01:45:42 42° W 01:46:45 34° SW visible
14 Aug 6.7 00:00:53 10° NE 00:02:25 12° ENE 00:03:36 11° E visible
14 Aug 4.2 01:35:06 10° NNW 01:38:52 41° W 01:39:06 40° WSW visible
14 Aug 6.7 23:53:56 10° NE 23:55:36 12° ENE 23:56:02 12° E visible
15 Aug 4.5 01:28:18 10° NNW 01:31:32 37° WNW 01:31:32 37° WNW visible
15 Aug 6.8 23:47:02 10° NE 23:48:33 12° ENE 23:48:33 12° ENE visible
16 Aug 4.9 01:21:29 10° NNW 01:24:02 31° NW 01:24:02 31° NW visible
16 Aug 6.9 23:40:07 10° NE 23:41:07 12° ENE 23:41:07 12° ENE visible
17 Aug 5.3 01:14:41 10° NNW 01:16:39 24° NW 01:16:39 24° NW visible
17 Aug 7.0 23:33:12 10° NE 23:33:46 11° NE 23:33:46 11° NE visible
18 Aug 5.7 01:07:53 10° NNW 01:09:17 19° NW 01:09:17 19° NW visible
18 Aug 7.1 23:26:18 10° NE 23:26:28 11° NE 23:26:28 11° NE visible
19 Aug 6.1 01:01:05 10° NNW 01:02:00 16° NNW 01:02:00 16° NNW visible
20 Aug 6.4 00:54:16 10° NNW 00:54:44 13° NNW 00:54:44 13° NNW visible
